THA112 VTSP-VTSM

Flight info

Callsign THA112
Flight time 0h 37m
Altitude 23000
Route EMRIT1B EMRIT Y99 AKVUG Y93 DORNA
Aircraft A20N/M-SDE2E3FGHIRWXY/LB1

Departure

Time 2026-05-07 10:00
Airport Phuket International Airport (VTSP)

Arrival

Time 2026-05-07 10:37
Airport Samui International Airport (VTSM)
Time Latitude Longitude Altitude Speed Heading
2026-05-07 09:29 8.10714 98.30503 27 ft 0 kts 105°
2026-05-07 09:51 8.10716 98.30495 27 ft 2 kts 103°
2026-05-07 09:51 8.10720 98.30479 27 ft 2 kts 102°
2026-05-07 09:51 8.10724 98.30462 27 ft 2 kts 100°
2026-05-07 09:52 8.10726 98.30446 27 ft 2 kts 96°
2026-05-07 09:52 8.10727 98.30429 27 ft 2 kts 85°
2026-05-07 09:52 8.10723 98.30413 26 ft 2 kts 49°
2026-05-07 09:52 8.10712 98.30405 26 ft 1 kts 16°
2026-05-07 09:53 8.10710 98.30404 26 ft 0 kts 14°
2026-05-07 09:54 8.10721 98.30407 26 ft 5 kts 14°
2026-05-07 09:54 8.10786 98.30425 26 ft 14 kts 15°
2026-05-07 09:54 8.10910 98.30459 27 ft 22 kts 15°
2026-05-07 09:55 8.10993 98.30479 27 ft 2 kts 15°
2026-05-07 09:55 8.11038 98.30502 27 ft 12 kts 49°
2026-05-07 09:55 8.11057 98.30608 27 ft 20 kts 84°
2026-05-07 09:55 8.11072 98.30772 28 ft 27 kts 85°
2026-05-07 09:56 8.11111 98.30975 29 ft 32 kts 70°
2026-05-07 09:56 8.11142 98.31210 30 ft 36 kts 84°
2026-05-07 09:56 8.11165 98.31474 37 ft 39 kts 85°
2026-05-07 09:56 8.11191 98.31750 46 ft 40 kts 85°
2026-05-07 09:57 8.11217 98.32031 54 ft 40 kts 86°
2026-05-07 09:57 8.11244 98.32315 73 ft 41 kts 85°
2026-05-07 09:57 8.11270 98.32581 81 ft 31 kts 84°
2026-05-07 09:57 8.11291 98.32816 88 ft 35 kts 85°
2026-05-07 09:58 8.11336 98.33007 92 ft 22 kts 33°
2026-05-07 09:58 8.11351 98.33014 94 ft 0 kts 16°
2026-05-07 09:59 8.11352 98.33014 94 ft 1 kts 16°
2026-05-07 09:59 8.11394 98.33013 92 ft 11 kts 348°
2026-05-07 09:59 8.11435 98.32879 90 ft 41 kts 265°
2026-05-07 09:59 8.11380 98.32286 71 ft 125 kts 263°
2026-05-07 10:00 8.11282 98.31185 139 ft 181 kts 266°
2026-05-07 10:00 8.11183 98.29832 677 ft 201 kts 266°
2026-05-07 10:00 8.11037 98.28457 1806 ft 190 kts 263°
2026-05-07 10:00 8.10889 98.27129 2596 ft 197 kts 263°
2026-05-07 10:01 8.10602 98.25704 2978 ft 220 kts 244°
2026-05-07 10:01 8.09566 98.24487 3288 ft 242 kts 211°
2026-05-07 10:01 8.07921 98.23919 3735 ft 262 kts 185°
2026-05-07 10:01 8.06055 98.23900 4341 ft 275 kts 175°
2026-05-07 10:02 8.04173 98.24023 4435 ft 272 kts 174°
2026-05-07 10:02 8.02270 98.24130 4568 ft 275 kts 176°
2026-05-07 10:02 8.00339 98.24181 5178 ft 278 kts 178°
2026-05-07 10:02 7.98408 98.24188 6148 ft 278 kts 178°
2026-05-07 10:03 7.96458 98.24173 6950 ft 282 kts 179°
2026-05-07 10:03 7.94483 98.24147 7753 ft 285 kts 179°
2026-05-07 10:03 7.92494 98.24176 8557 ft 287 kts 169°
2026-05-07 10:03 7.90634 98.24871 9334 ft 288 kts 144°
2026-05-07 10:04 7.89253 98.26315 10059 ft 289 kts 119°
2026-05-07 10:04 7.88582 98.28231 10491 ft 305 kts 97°
2026-05-07 10:04 7.88549 98.30449 10698 ft 328 kts 88°
2026-05-07 10:04 7.88681 98.32804 11097 ft 341 kts 86°
2026-05-07 10:05 7.88834 98.35212 11826 ft 344 kts 86°
2026-05-07 10:05 7.88969 98.37632 12543 ft 347 kts 87°
2026-05-07 10:05 7.89085 98.40076 13254 ft 351 kts 88°
2026-05-07 10:05 7.89187 98.42547 13894 ft 354 kts 88°
2026-05-07 10:06 7.89282 98.45007 14483 ft 358 kts 88°
2026-05-07 10:06 7.89377 98.47530 15074 ft 361 kts 88°
2026-05-07 10:06 7.89553 98.50067 15645 ft 365 kts 81°
2026-05-07 10:06 7.90243 98.52562 16208 ft 369 kts 68°
2026-05-07 10:07 7.91007 98.54101 16582 ft 372 kts 59°
2026-05-07 10:07 7.92511 98.56241 17131 ft 376 kts 54°
2026-05-07 10:07 7.94073 98.58371 17687 ft 379 kts 54°
2026-05-07 10:07 7.96159 98.61232 18349 ft 383 kts 54°
2026-05-07 10:08 7.97744 98.63411 18831 ft 386 kts 54°
2026-05-07 10:08 7.98797 98.64861 19133 ft 388 kts 54°
2026-05-07 10:08 8.00934 98.67806 19738 ft 392 kts 54°
2026-05-07 10:08 8.02548 98.70029 20193 ft 394 kts 54°
2026-05-07 10:09 8.03626 98.71514 20488 ft 397 kts 54°
2026-05-07 10:09 8.05260 98.73767 20934 ft 399 kts 54°
2026-05-07 10:09 8.06910 98.76040 21371 ft 402 kts 54°
2026-05-07 10:09 8.08553 98.78341 21807 ft 405 kts 58°
2026-05-07 10:10 8.09826 98.80883 22238 ft 407 kts 70°
2026-05-07 10:10 8.10529 98.83651 22595 ft 410 kts 82°
2026-05-07 10:10 8.10672 98.86524 22698 ft 410 kts 90°
2026-05-07 10:10 8.10685 98.89401 22794 ft 410 kts 90°
2026-05-07 10:11 8.10703 98.92291 22827 ft 411 kts 90°
2026-05-07 10:11 8.10881 98.95159 22830 ft 410 kts 79°
2026-05-07 10:11 8.11725 98.97907 22804 ft 411 kts 65°
2026-05-07 10:11 8.13232 99.00355 22801 ft 412 kts 51°
2026-05-07 10:12 8.15163 99.02454 22802 ft 414 kts 47°
2026-05-07 10:12 8.17150 99.04555 22797 ft 413 kts 47°
2026-05-07 10:12 8.19134 99.06655 22806 ft 412 kts 47°
2026-05-07 10:12 8.21112 99.08754 22808 ft 413 kts 47°
2026-05-07 10:13 8.23097 99.10864 22804 ft 413 kts 47°
2026-05-07 10:13 8.25075 99.12967 22624 ft 413 kts 47°
2026-05-07 10:13 8.27049 99.15066 22379 ft 410 kts 47°
2026-05-07 10:13 8.29002 99.17143 21997 ft 406 kts 47°
2026-05-07 10:14 8.30941 99.19205 21489 ft 403 kts 47°
2026-05-07 10:14 8.32864 99.21251 20949 ft 400 kts 47°
2026-05-07 10:14 8.34771 99.23281 20409 ft 397 kts 47°
2026-05-07 10:14 8.36661 99.25292 19888 ft 393 kts 47°
2026-05-07 10:15 8.38516 99.27266 19391 ft 390 kts 47°
2026-05-07 10:15 8.40382 99.29251 18873 ft 387 kts 47°
2026-05-07 10:15 8.42229 99.31217 18378 ft 384 kts 47°
2026-05-07 10:15 8.44267 99.32941 17836 ft 383 kts 33°
2026-05-07 10:16 8.46700 99.34013 17277 ft 383 kts 16°
2026-05-07 10:16 8.49344 99.34368 16724 ft 382 kts
2026-05-07 10:16 8.51986 99.34494 16196 ft 379 kts
2026-05-07 10:16 8.54584 99.34617 15699 ft 376 kts
2026-05-07 10:17 8.57193 99.34742 15198 ft 373 kts
2026-05-07 10:17 8.59777 99.34869 14707 ft 370 kts
2026-05-07 10:17 8.62372 99.34998 13909 ft 377 kts
2026-05-07 10:17 8.64976 99.35128 13694 ft 378 kts
2026-05-07 10:18 8.67696 99.35266 13589 ft 403 kts
2026-05-07 10:18 8.70579 99.35412 13485 ft 423 kts
2026-05-07 10:18 8.73536 99.35559 13373 ft 425 kts
2026-05-07 10:18 8.76428 99.35700 13242 ft 407 kts
2026-05-07 10:19 8.79190 99.35835 13129 ft 388 kts
2026-05-07 10:19 8.81802 99.35963 13012 ft 371 kts
2026-05-07 10:19 8.84338 99.36089 12767 ft 360 kts
2026-05-07 10:19 8.86826 99.36215 12291 ft 356 kts
2026-05-07 10:20 8.89294 99.36340 11803 ft 353 kts
2026-05-07 10:20 8.91742 99.36463 11348 ft 351 kts
2026-05-07 10:20 8.94176 99.36586 10895 ft 349 kts
2026-05-07 10:20 8.96590 99.36707 10454 ft 345 kts
2026-05-07 10:21 8.98981 99.36827 10019 ft 342 kts
2026-05-07 10:21 9.01353 99.36945 9572 ft 339 kts
2026-05-07 10:21 9.03707 99.37064 9096 ft 336 kts
2026-05-07 10:21 9.05955 99.37556 8622 ft 329 kts 26°
2026-05-07 10:22 9.07818 99.38828 8161 ft 321 kts 47°
2026-05-07 10:22 9.09290 99.40468 7716 ft 318 kts 50°
2026-05-07 10:22 9.10760 99.42138 7265 ft 315 kts 50°
2026-05-07 10:22 9.12216 99.43793 6824 ft 313 kts 50°
2026-05-07 10:23 9.13665 99.45434 6462 ft 309 kts 50°
2026-05-07 10:23 9.15087 99.47043 6159 ft 303 kts 50°
2026-05-07 10:23 9.16472 99.48608 5912 ft 294 kts 50°
2026-05-07 10:23 9.17803 99.50110 5669 ft 286 kts 50°
2026-05-07 10:24 9.19118 99.51595 5427 ft 279 kts 50°
2026-05-07 10:24 9.20404 99.53048 5187 ft 278 kts 50°
2026-05-07 10:24 9.21795 99.54628 5047 ft 318 kts 50°
2026-05-07 10:24 9.23295 99.56327 4994 ft 325 kts 50°
2026-05-07 10:25 9.24803 99.58027 4985 ft 324 kts 50°
2026-05-07 10:25 9.26313 99.59732 4980 ft 325 kts 50°
2026-05-07 10:25 9.27791 99.61400 4978 ft 315 kts 50°
2026-05-07 10:25 9.29214 99.63004 4980 ft 297 kts 50°
2026-05-07 10:26 9.30556 99.64515 4979 ft 280 kts 48°
2026-05-07 10:26 9.32071 99.65672 4986 ft 271 kts 33°
2026-05-07 10:26 9.33717 99.66655 4978 ft 275 kts 33°
2026-05-07 10:26 9.35364 99.67638 4980 ft 274 kts 32°
2026-05-07 10:27 9.37002 99.68615 4988 ft 274 kts 32°
2026-05-07 10:27 9.38652 99.69596 4988 ft 274 kts 32°
2026-05-07 10:27 9.40293 99.70574 4977 ft 274 kts 32°
2026-05-07 10:27 9.41932 99.71550 4988 ft 274 kts 32°
2026-05-07 10:28 9.43554 99.72516 4982 ft 273 kts 32°
2026-05-07 10:28 9.45194 99.73492 4979 ft 273 kts 32°
2026-05-07 10:28 9.46832 99.74468 4989 ft 274 kts 32°
2026-05-07 10:28 9.48474 99.75446 4983 ft 273 kts 32°
2026-05-07 10:29 9.50113 99.76422 4981 ft 274 kts 33°
2026-05-07 10:29 9.51753 99.77399 4994 ft 273 kts 33°
2026-05-07 10:29 9.53397 99.78379 4985 ft 273 kts 33°
2026-05-07 10:30 9.56679 99.80337 4999 ft 273 kts 33°
2026-05-07 10:30 9.58318 99.81313 4985 ft 273 kts 33°
2026-05-07 10:30 9.59955 99.82289 4989 ft 273 kts 33°
2026-05-07 10:30 9.61588 99.83263 4992 ft 272 kts 32°
2026-05-07 10:31 9.63201 99.84225 4993 ft 273 kts 32°
2026-05-07 10:31 9.64835 99.85199 4988 ft 272 kts 32°
2026-05-07 10:31 9.66465 99.86171 4986 ft 268 kts 33°
2026-05-07 10:31 9.68000 99.87146 4984 ft 251 kts 43°
2026-05-07 10:32 9.68967 99.88501 4994 ft 229 kts 72°
2026-05-07 10:32 9.69190 99.90062 5006 ft 229 kts 91°
2026-05-07 10:32 9.69181 99.91676 4944 ft 227 kts 91°
2026-05-07 10:32 9.69178 99.93267 4686 ft 225 kts 91°
2026-05-07 10:33 9.69178 99.94843 4374 ft 223 kts 91°
2026-05-07 10:33 9.69179 99.96407 4055 ft 221 kts 91°
2026-05-07 10:33 9.69179 99.97963 3740 ft 220 kts 91°
2026-05-07 10:33 9.69161 99.99510 3426 ft 218 kts 97°
2026-05-07 10:34 9.68603 100.00914 3113 ft 216 kts 129°
2026-05-07 10:34 9.67447 100.01876 2812 ft 216 kts 144°
2026-05-07 10:34 9.66232 100.02732 2522 ft 215 kts 143°
2026-05-07 10:34 9.65010 100.03600 2235 ft 214 kts 143°
2026-05-07 10:35 9.63801 100.04465 1936 ft 209 kts 143°
2026-05-07 10:35 9.62593 100.05269 1662 ft 203 kts 154°
2026-05-07 10:35 9.61312 100.05616 1481 ft 183 kts 174°
2026-05-07 10:35 9.60092 100.05685 1135 ft 166 kts 173°
2026-05-07 10:36 9.59028 100.05802 933 ft 148 kts 170°
2026-05-07 10:36 9.58043 100.05915 572 ft 144 kts 172°
2026-05-07 10:36 9.57081 100.06017 339 ft 133 kts 172°
2026-05-07 10:36 9.56180 100.06106 155 ft 130 kts 171°
2026-05-07 10:37 9.55257 100.06199 50 ft 129 kts 172°
2026-05-07 10:37 9.54529 100.06272 52 ft 75 kts 175°
2026-05-07 10:37 9.54081 100.06314 50 ft 60 kts 174°
2026-05-07 10:37 9.53852 100.06314 52 ft 0 kts 134°
2026-05-07 10:38 9.53855 100.06335 49 ft 7 kts 53°
2026-05-07 10:38 9.53903 100.06342 52 ft 19 kts 343°
2026-05-07 10:38 9.54257 100.06298 48 ft 84 kts 355°
2026-05-07 10:38 9.54807 100.06244 50 ft 56 kts 354°
2026-05-07 10:39 9.54997 100.06240 46 ft 3 kts 52°
2026-05-07 10:39 9.55011 100.06275 49 ft 8 kts 69°
2026-05-07 10:39 9.55072 100.06307 49 ft 8 kts 27°
2026-05-07 10:39 9.55082 100.06345 50 ft 0 kts 87°